Погода в Ярославском

Россия / Курганская область     55°02′30″N   65°18′04″E
темп.,
°C
ветер,
м/с
пор.,
м/с
влажн.,
%
обл.,
%
осадки,
мм/ч
давл.,
гПа
погр.,
м
18 мая, вт
вт1823:00+20з5125482 0.1 1015217
02:00+18ссз346111 0.1 101460
05:00+16з2474100 0.2 101468
08:00+18зсз2270100 2.8 1014141
11:00+25зсз5744100 2.9 10131000
14:00+26зсз6839100 0.0 10121950
17:00+20ссв896573 0.5 1012476
20:00+19ссв257196 4.1 1014147
19 мая, ср
ср1923:00+15св8137534 4.8 1016512
02:00+12ссв511867 0.0 1018480
05:00+13св6108118 0.0 1020695
08:00+14св68650 0.0 1021794
11:00+17св784370 0.0 10221507
14:00+19св67365 0.0 10221715
17:00+20ссв56365 0.0 10221869
20:00+16ссв475439 0.0 1022145
20 мая, чт
чт2023:00+13св485475 0.0 1023137
02:00+11в335892 0.0 102446
05:00+10юв22637 0.0 102511
08:00+15зсз11485 0.0 1025312
11:00+19зсз2239100 0.0 10241274
14:00+22зсз23335 0.0 10231618
17:00+23зсз34315 0.0 10211756
20:00+19сз22485 0.0 102112
21 мая, пт
пт2123:00+16зюз22500 0.0 102111
02:00+14зюз33570 0.0 102126
05:00+13зюз22580 0.0 102215
08:00+19з23460 0.0 1023258
11:00+24з33350 0.0 10221081
14:00+26зюз22280 0.0 10221805
17:00+27юз22260 0.0 10212074
20:00+22ююз33420 0.0 102121
22 мая, сб
сб2223:00+19юз22420 0.0 102111
02:00+17ююз22430 0.0 102113
05:00+16юз22500 0.0 102215
08:00+21юз34430 0.0 1023251
11:00+26юз45310 0.0 10221288
14:00+28юз46260 0.0 10212393
17:00+28юз45249 0.0 10212833
20:00+23юз33425 0.0 102136